Weather History for Phoenix Deer Valley, AZ

Change the Weather History Date:

Tuesday, March 5, 2013

  Actual Average Record
Temperature  
Mean Temperature 65 °F -  
Max Temperature 75 °F 69 °F 81 °F (2014)
Min Temperature 55 °F 47 °F 43 °F (2002)
Growing Degree Days 15 (Base 50)    
Moisture  
Dew Point 34 °F    
Average Humidity 35    
Maximum Humidity 49    
Minimum Humidity 19    
Precipitation  
Precipitation 0.00 in - - ()
Sea Level Pressure  
Sea Level Pressure 29.99 in    
Wind  
Wind Speed 4 mph (ESE)    
Max Wind Speed 10 mph    
Max Gust Speed -    
Visibility 10 miles    
Events      
Averages and records for this station are not official NWS values.
T = Trace of Precipitation, MM = Missing Value Source: NWS Daily Summary

Daily Weather History Graph

Daily Weather History Graph

Search for Another Location

Airport:

Trip Planner

Search our weather history database for the weather conditions in past years. The results will help you decide how hot, cold, wet, or windy it might be!

Date:

Astronomy

Mar. 05, 2013 Rise Set
Actual Time 6:51 AM MST 6:28 PM MST
Civil Twilight 6:26 AM MST 6:53 PM MST
Nautical Twilight 5:57 AM MST 7:22 PM MST
Astronomical Twilight 5:28 AM MST 7:51 PM MST
Moon 1:54 AM MST (3/5) 12:23 PM MST (3/5)
Length of Visible Light 12h 26m
Length of Day
11h 37m
Last Quarter, 40% of the Moon is Illuminated
Mar 5
Last Quarter
Mar 11
New
Mar 19
First Quarter
Mar 27
Full
Apr 2
Last Quarter

Hourly Weather History & Observations

Time (MST) Temp. Dew Point Humidity Pressure Visibility Wind Dir Wind Speed Gust Speed Precip Events Conditions
12:53 AM 55.9 °F 36.0 °F 47% 30.01 in 10.0 mi Calm Calm - N/A   Clear
1:53 AM 57.0 °F 36.0 °F 45% 30.02 in 10.0 mi ENE 4.6 mph - N/A   Clear
2:53 AM 57.0 °F 35.1 °F 44% 30.01 in 10.0 mi NE 6.9 mph - N/A   Clear
3:53 AM 57.0 °F 35.1 °F 44% 30.01 in 10.0 mi NE 10.4 mph - N/A   Clear
4:53 AM 55.0 °F 36.0 °F 49% 30.01 in 10.0 mi NNE 8.1 mph - N/A   Clear
5:53 AM 55.0 °F 36.0 °F 49% 30.02 in 10.0 mi NNE 6.9 mph - N/A   Clear
6:53 AM 55.9 °F 36.0 °F 47% 30.03 in 10.0 mi NE 4.6 mph - N/A   Clear
7:53 AM 57.0 °F 36.0 °F 45% 30.06 in 10.0 mi NE 5.8 mph - N/A   Clear
8:53 AM 60.1 °F 37.9 °F 44% 30.07 in 10.0 mi South 3.5 mph - N/A   Clear
9:53 AM 64.0 °F 37.9 °F 38% 30.06 in 10.0 mi Calm Calm - N/A   Clear
10:53 AM 69.1 °F 39.0 °F 33% 30.05 in 10.0 mi South 5.8 mph - N/A   Clear
11:53 AM 71.1 °F 36.0 °F 28% 30.04 in 10.0 mi South 3.5 mph - N/A   Clear
12:53 PM 72.0 °F 34.0 °F 25% 30.01 in 10.0 mi Variable 4.6 mph - N/A   Clear
1:53 PM 75.0 °F 32.0 °F 21% 29.98 in 10.0 mi SE 9.2 mph - N/A   Clear
2:53 PM 73.9 °F 30.9 °F 21% 29.96 in 10.0 mi SSE 5.8 mph - N/A   Clear
3:53 PM 75.0 °F 30.0 °F 19% 29.95 in 10.0 mi South 10.4 mph - N/A   Clear
4:53 PM 75.0 °F 30.0 °F 19% 29.92 in 10.0 mi Calm Calm - N/A   Clear
5:53 PM 73.0 °F 32.0 °F 22% 29.91 in 10.0 mi East 4.6 mph - N/A   Clear
6:53 PM 71.1 °F 27.0 °F 19% 29.92 in 10.0 mi SSE 4.6 mph - N/A   Clear
7:53 PM 66.9 °F 30.9 °F 26% 29.94 in 10.0 mi East 3.5 mph - N/A   Clear
8:53 PM 66.0 °F 32.0 °F 28% 29.94 in 10.0 mi East 3.5 mph - N/A   Clear
9:53 PM 60.1 °F 35.1 °F 39% 29.95 in 10.0 mi Calm Calm - N/A   Clear
10:53 PM 57.9 °F 36.0 °F 44% 29.95 in 10.0 mi Calm Calm - N/A   Clear
11:53 PM 57.0 °F 36.0 °F 45% 29.94 in 10.0 mi Calm Calm - N/A   Clear